When you browse on this site, cookies collect data to enhance your experience and personalize the content and advertising you see.
Visit our Privacy Policy to learn more. By continuing to use the site, you agree to this use of cookies and data.
EN

Hourly Weather Baranovichi

Today, 4 August, Tuesday

Time Temperature Precipitation Wind Pressure Humidity
00:00 +16°C° 0 mm 3 mps 742 mmHg 88%
01:00 +16°C° 0 mm 3 mps 742 mmHg 88%
02:00 +17°C° 0 mm 3 mps 742 mmHg 88%
03:00 +16°C° 0 mm 3 mps 742 mmHg 89%
04:00 +16°C° 0 mm 3 mps 742 mmHg 91%
05:00 +14°C° 0 mm 3 mps 742 mmHg 92%
06:00 +17°C° 0 mm 4 mps 742 mmHg 87%
07:00 +18°C° 0 mm 4 mps 742 mmHg 82%
08:00 +19°C° 0 mm 4 mps 742 mmHg 77%
09:00 +21°C° 0 mm 5 mps 742 mmHg 72%
10:00 +22°C° 0 mm 5 mps 742 mmHg 68%
11:00 +25°C° 0 mm 5 mps 742 mmHg 64%
12:00 +26°C° 0 mm 5 mps 742 mmHg 63%
13:00 +26°C° 0 mm 5 mps 742 mmHg 61%
14:00 +27°C° 0 mm 5 mps 741 mmHg 60%
15:00 +27°C° 0 mm 5 mps 741 mmHg 62%
16:00 +27°C° 0 mm 5 mps 741 mmHg 65%
17:00 +26°C° 0 mm 5 mps 741 mmHg 67%
18:00 +25°C° 0 mm 5 mps 741 mmHg 69%
19:00 +23°C° 0 mm 4 mps 741 mmHg 71%
20:00 +22°C° 0 mm 4 mps 742 mmHg 73%
21:00 +21°C° 0 mm 4 mps 742 mmHg 74%
22:00 +20°C° 0 mm 4 mps 742 mmHg 75%
23:00 +20°C° 0 mm 4 mps 742 mmHg 77%

Tomorrow, 5 August, Wednesday

Time Temperature Precipitation Wind Pressure Humidity
00:00 +19°C° 0.2 mm 3 mps 743 mmHg 82%
01:00 +18°C° 0.2 mm 3 mps 743 mmHg 86%
02:00 +17°C° 0.2 mm 2 mps 743 mmHg 91%
03:00 +17°C° 0.1 mm 2 mps 743 mmHg 93%
04:00 +17°C° 0.1 mm 2 mps 744 mmHg 95%
05:00 +18°C° 0.1 mm 1 mps 744 mmHg 96%
06:00 +18°C° 0 mm 2 mps 744 mmHg 95%
07:00 +18°C° 0 mm 2 mps 745 mmHg 94%
08:00 +19°C° 0 mm 2 mps 745 mmHg 93%
09:00 +20°C° 0 mm 3 mps 746 mmHg 90%
10:00 +20°C° 0 mm 3 mps 746 mmHg 87%
11:00 +21°C° 0 mm 3 mps 747 mmHg 84%
12:00 +22°C° 0 mm 3 mps 747 mmHg 81%
13:00 +23°C° 0 mm 2 mps 747 mmHg 78%
14:00 +24°C° 0 mm 2 mps 747 mmHg 75%
15:00 +24°C° 0 mm 2 mps 747 mmHg 77%
16:00 +24°C° 0 mm 3 mps 747 mmHg 79%
17:00 +22°C° 0 mm 3 mps 748 mmHg 81%
18:00 +22°C° 0 mm 3 mps 748 mmHg 82%
19:00 +21°C° 0 mm 3 mps 748 mmHg 84%
20:00 +20°C° 0 mm 3 mps 748 mmHg 85%
21:00 +19°C° 0 mm 3 mps 749 mmHg 88%
22:00 +18°C° 0 mm 3 mps 749 mmHg 91%
23:00 +17°C° 0 mm 2 mps 749 mmHg 94%

Day after tomorrow, 6 August, Thursday

Time Temperature Precipitation Wind Pressure Humidity
00:00 +17°C° 0 mm 2 mps 749 mmHg 94%
01:00 +17°C° 0 mm 3 mps 750 mmHg 94%
02:00 +17°C° 0 mm 3 mps 750 mmHg 95%
03:00 +17°C° 0 mm 3 mps 750 mmHg 93%
04:00 +17°C° 0 mm 3 mps 750 mmHg 91%
05:00 +17°C° 0 mm 3 mps 750 mmHg 89%
06:00 +17°C° 0 mm 3 mps 751 mmHg 86%
07:00 +18°C° 0 mm 3 mps 751 mmHg 83%
08:00 +19°C° 0 mm 3 mps 751 mmHg 80%
09:00 +20°C° 0 mm 3 mps 751 mmHg 77%
10:00 +22°C° 0 mm 3 mps 752 mmHg 73%
11:00 +24°C° 0 mm 2 mps 752 mmHg 70%
12:00 +25°C° 0 mm 2 mps 752 mmHg 67%
13:00 +26°C° 0 mm 3 mps 752 mmHg 65%
14:00 +27°C° 0 mm 3 mps 752 mmHg 63%
15:00 +27°C° 0 mm 3 mps 752 mmHg 64%
16:00 +27°C° 0 mm 3 mps 752 mmHg 65%
17:00 +27°C° 0 mm 3 mps 752 mmHg 65%
18:00 +25°C° 0 mm 3 mps 752 mmHg 70%
19:00 +22°C° 0 mm 3 mps 752 mmHg 75%
20:00 +21°C° 0 mm 3 mps 752 mmHg 80%
21:00 +20°C° 0 mm 3 mps 752 mmHg 80%
22:00 +19°C° 0 mm 3 mps 752 mmHg 79%
23:00 +18°C° 0 mm 3 mps 753 mmHg 79%

7 August, Friday

Time Temperature Precipitation Wind Pressure Humidity
00:00 +18°C° 0 mm 3 mps 753 mmHg 79%
01:00 +17°C° 0 mm 3 mps 753 mmHg 79%
02:00 +17°C° 0 mm 3 mps 753 mmHg 80%
03:00 +16°C° 0 mm 3 mps 753 mmHg 80%
04:00 +16°C° 0 mm 3 mps 753 mmHg 80%
05:00 +14°C° 0 mm 3 mps 753 mmHg 81%
06:00 +17°C° 0 mm 3 mps 753 mmHg 78%
07:00 +18°C° 0 mm 3 mps 754 mmHg 75%
08:00 +20°C° 0 mm 3 mps 754 mmHg 72%
09:00 +21°C° 0 mm 3 mps 754 mmHg 67%
10:00 +24°C° 0 mm 3 mps 754 mmHg 63%
11:00 +25°C° 0 mm 3 mps 754 mmHg 58%
12:00 +26°C° 0 mm 3 mps 754 mmHg 56%
13:00 +26°C° 0 mm 3 mps 753 mmHg 54%
14:00 +27°C° 0 mm 3 mps 753 mmHg 53%
15:00 +27°C° 0 mm 3 mps 753 mmHg 55%
16:00 +27°C° 0 mm 3 mps 753 mmHg 57%
17:00 +26°C° 0 mm 3 mps 753 mmHg 60%
18:00 +25°C° 0 mm 3 mps 753 mmHg 66%
19:00 +23°C° 0 mm 2 mps 753 mmHg 71%
20:00 +20°C° 0 mm 2 mps 752 mmHg 77%
21:00 +19°C° 0 mm 2 mps 753 mmHg 78%
22:00 +19°C° 0 mm 2 mps 753 mmHg 79%
23:00 +18°C° 0 mm 2 mps 753 mmHg 80%

8 August, Saturday

Time Temperature Precipitation Wind Pressure Humidity
00:00 +18°C° 0 mm 2 mps 753 mmHg 83%
01:00 +17°C° 0 mm 2 mps 753 mmHg 85%
02:00 +17°C° 0 mm 2 mps 753 mmHg 88%
03:00 +17°C° 0 mm 2 mps 752 mmHg 89%
04:00 +16°C° 0 mm 2 mps 752 mmHg 90%
05:00 +16°C° 0 mm 1 mps 752 mmHg 91%
06:00 +18°C° 0 mm 2 mps 752 mmHg 86%
07:00 +19°C° 0 mm 2 mps 752 mmHg 81%
08:00 +21°C° 0 mm 2 mps 752 mmHg 76%
09:00 +23°C° 0 mm 2 mps 752 mmHg 72%
10:00 +24°C° 0 mm 2 mps 752 mmHg 67%
11:00 +26°C° 0 mm 2 mps 752 mmHg 63%
12:00 +26°C° 0.5 mm 2 mps 751 mmHg 63%
13:00 +26°C° 0.5 mm 1 mps 751 mmHg 63%
14:00 +27°C° 0.5 mm 1 mps 750 mmHg 63%
15:00 +26°C° 1 mm 1 mps 750 mmHg 65%
16:00 +26°C° 1 mm 1 mps 750 mmHg 68%
17:00 +26°C° 1 mm 2 mps 750 mmHg 70%
18:00 +24°C° 0.6 mm 1 mps 749 mmHg 75%
19:00 +23°C° 0.6 mm 1 mps 749 mmHg 80%
20:00 +21°C° 0.6 mm 1 mps 749 mmHg 85%
21:00 +21°C° 0 mm 1 mps 749 mmHg 86%
22:00 +20°C° 0 mm 1 mps 749 mmHg 88%
23:00 +20°C° 0 mm 1 mps 749 mmHg 90%

9 August, Sunday

Time Temperature Precipitation Wind Pressure Humidity
00:00 +19°C° 0 mm 1 mps 749 mmHg 91%
01:00 +19°C° 0 mm 1 mps 748 mmHg 92%
02:00 +18°C° 0 mm 1 mps 748 mmHg 93%
03:00 +18°C° 0 mm 1 mps 748 mmHg 94%
04:00 +18°C° 0 mm 1 mps 748 mmHg 94%
05:00 +18°C° 0 mm 1 mps 747 mmHg 95%
06:00 +19°C° 0 mm 1 mps 748 mmHg 92%
07:00 +20°C° 0 mm 1 mps 748 mmHg 89%
08:00 +21°C° 0 mm 1 mps 748 mmHg 86%
09:00 +22°C° 0.5 mm 1 mps 748 mmHg 81%
10:00 +24°C° 0.5 mm 1 mps 747 mmHg 76%
11:00 +25°C° 0.5 mm 1 mps 747 mmHg 71%
12:00 +25°C° 0.9 mm 2 mps 747 mmHg 70%
13:00 +26°C° 0.9 mm 2 mps 747 mmHg 70%
14:00 +26°C° 0.9 mm 3 mps 747 mmHg 69%
15:00 +26°C° 0.4 mm 3 mps 747 mmHg 69%
16:00 +26°C° 0.4 mm 3 mps 746 mmHg 69%
17:00 +25°C° 0.4 mm 3 mps 746 mmHg 70%
18:00 +24°C° 0 mm 2 mps 746 mmHg 76%
19:00 +21°C° 0 mm 2 mps 746 mmHg 82%
20:00 +21°C° 0 mm 1 mps 746 mmHg 87%
21:00 +20°C° 0 mm 1 mps 746 mmHg 88%
22:00 +20°C° 0 mm 1 mps 746 mmHg 88%
23:00 +19°C° 0 mm 1 mps 746 mmHg 88%
Show more